This is the latest recevied weather packets stored in our database for station/object KE5OYL. If no packets are shown the sender has not sent any weather packets the latest 10 day(s).
| Time | Temp. | Humidity | Pressure | Rain* | Wind** | Luminosity | Snow |
|---|---|---|---|---|---|---|---|
| 1787792928 | 33.33° C | 53% | 1012.1 hPa | 0 mm | - | 1 W/m² | - |
| 1787792624 | 33.33° C | 53% | 1012.2 hPa | 0 mm | - | 4 W/m² | - |
| 1787792321 | 33.33° C | 53% | 1012.1 hPa | 0 mm | - | 5 W/m² | - |
| 1787792020 | 33.33° C | 53% | 1012.1 hPa | 0 mm | - | 6 W/m² | - |
| 1787791718 | 33.33° C | 53% | 1012.2 hPa | 0 mm | - | 6 W/m² | - |
| 1787791414 | 33.33° C | 52% | 1012.4 hPa | 0 mm | - | 6 W/m² | - |
| 1787791109 | 33.33° C | 52% | 1012.2 hPa | 0 mm | - | 7 W/m² | - |
| 1787790805 | 33.33° C | 52% | 1012.2 hPa | 0 mm | - | 12 W/m² | - |
| 1787790499 | 33.33° C | 52% | 1012.2 hPa | 0 mm | - | 18 W/m² | - |
| 1787790195 | 33.89° C | 50% | 1012.4 hPa | 0 mm | - | 19 W/m² | - |
| 1787789891 | 33.89° C | 50% | 1012.3 hPa | 0 mm | - | 14 W/m² | - |
| 1787789590 | 33.89° C | 49% | 1012.2 hPa | 0 mm | - | 15 W/m² | - |
| 1787789290 | 34.44° C | 48% | 1012.3 hPa | 0 mm | - | 14 W/m² | - |
| 1787788985 | 35° C | 47% | 1012.5 hPa | 0 mm | - | 13 W/m² | - |
| 1787788682 | 36.67° C | 44% | 1012.7 hPa | 0 mm | - | 13 W/m² | - |
| 1787788376 | 36.67° C | 41% | 1012.6 hPa | 0 mm | - | 12 W/m² | - |
| 1787788072 | 36.67° C | 41% | 1012.3 hPa | 0 mm | - | 15 W/m² | - |
| 1787787767 | 36.67° C | 41% | 1012.5 hPa | 0 mm | - | 18 W/m² | - |
| 1787787466 | 36.67° C | 41% | 1012.5 hPa | 0 mm | - | 18 W/m² | - |
| 1787787165 | 36.67° C | 41% | 1012.7 hPa | 0 mm | - | 22 W/m² | - |
| 1787786860 | 36.67° C | 40% | 1012.5 hPa | 0 mm | - | 30 W/m² | - |
| 1787786555 | 36.67° C | 40% | 1012.4 hPa | 0 mm | - | 35 W/m² | - |
| 1787786251 | 36.67° C | 40% | 1012.3 hPa | 0 mm | - | 38 W/m² | - |
| 1787785946 | 37.22° C | 40% | 1012.3 hPa | 0 mm | - | 31 W/m² | - |
| 1787785642 | 37.22° C | 40% | 1012.3 hPa | 0 mm | - | 30 W/m² | - |
* Rain latest hour (hover to see other rain measurements)
** Current wind speed in m/s (hover to see current wind gust speed)